This is the latest recevied weather packets stored in our database for station/object KO4WIL-13. If no packets are shown the sender has not sent any weather packets the latest 1 day(s).
| Time | Temp. | Humidity | Pressure | Rain* | Wind** | Luminosity | Snow |
|---|---|---|---|---|---|---|---|
| 1778067681 | 18.89° C | 80% | 963 hPa | 0.25 mm | - | - | - |
| 1778067379 | 18.89° C | 79% | 962.9 hPa | 0.25 mm | - | - | - |
| 1778067077 | 18.89° C | 78% | 962.7 hPa | 0.25 mm | - | - | - |
| 1778065568 | 20° C | 72% | 962.6 hPa | 0.25 mm | - | - | - |
| 1778065266 | 20° C | 71% | 962.5 hPa | 0.25 mm | - | - | - |
| 1778064964 | 20° C | 71% | 962.4 hPa | 0.25 mm | - | - | - |
| 1778064662 | 20° C | 71% | 962.3 hPa | 0 mm | - | - | - |
| 1778064058 | 20° C | 71% | 962.2 hPa | 0 mm | - | - | - |
| 1778063756 | 20° C | 70% | 962.1 hPa | 0 mm | - | - | - |
| 1778063152 | 20° C | 70% | 961.7 hPa | 0.25 mm | - | - | - |
| 1778058924 | 19.44° C | 69% | 961.6 hPa | 0 mm | - | - | - |
| 1778058622 | 18.89° C | 69% | 961.7 hPa | 0 mm | - | - | - |
| 1778058320 | 18.89° C | 69% | 961.6 hPa | 0 mm | - | - | - |
| 1778056809 | 17.78° C | 68% | 961.7 hPa | 0 mm | - | - | - |
| 1778055299 | 16.67° C | 69% | 961.6 hPa | 0 mm | - | - | - |
| 1778053486 | 16.11° C | 78% | 961.8 hPa | 0 mm | - | - | - |
| 1778052882 | 16.11° C | 71% | 961.9 hPa | 0 mm | - | - | - |
| 1778052580 | 16.11° C | 72% | 961.9 hPa | 0 mm | - | - | - |
| 1778051977 | 16.11° C | 77% | 962 hPa | 0 mm | - | - | - |
| 1778051372 | 16.67° C | 76% | 961.9 hPa | 0 mm | - | - | - |
| 1778051070 | 16.67° C | 70% | 962 hPa | 0 mm | - | - | - |
| 1778050466 | 16.67° C | 69% | 962 hPa | 0 mm | - | - | - |
| 1778049862 | 16.11° C | 72% | 962 hPa | 0 mm | - | - | - |
| 1778049560 | 16.11° C | 73% | 962.3 hPa | 0 mm | - | - | - |
| 1778048956 | 16.67° C | 78% | 962.3 hPa | 0 mm | - | - | - |
* Rain latest hour (hover to see other rain measurements)
** Current wind speed in m/s (hover to see current wind gust speed)